EB5EEV-5 Weather Reports


Display with metric or nautical units.
time (UTC)temp
F
wind
direction
speed
MPH
gust
MPH
rain 1hr
in
rain 24hr
in
rain mn
in
humidity
%
barometer
mb
20260506223144 0 0 0.0 0.0 0.00 0.00 0.00 100 1009.2
20260506221731 0 0 0.0 0.0 0.00 0.00 0.00 100 1009.2
20260506220329 0 0 0.0 0.0 0.00 0.00 0.00 100 1009.3
20260506213715 0 0 0.0 0.0 0.00 0.00 0.00 100 1009.3
20260506212356 0 0 0.0 0.0 0.00 0.00 0.00 100 1009.2
20260506211013 0 0 0.0 0.0 0.00 0.00 0.00 100 1009.0
20260506205516 0 0 0.0 0.0 0.00 0.00 0.00 100 1008.8
20260506204033 0 0 0.0 0.0 0.00 0.00 0.00 100 1008.6
20260506202659 0 0 0.0 0.0 0.00 0.00 0.00 100 1008.6
20260506201158 0 0 0.0 0.0 0.00 0.00 0.00 100 1008.3
20260506195735 0 0 0.0 0.0 0.00 0.00 0.00 100 1007.9
20260506194305 0 0 0.0 0.0 0.00 0.00 0.00 100 1007.8
20260506192856 0 0 0.0 0.0 0.00 0.00 0.00 100 1007.7
20260506191449 0 0 0.0 0.0 0.00 0.00 0.00 100 1007.6
20260506190201 0 0 0.0 0.0 0.00 0.00 0.00 100 1007.6
20260506184836 0 0 0.0 0.0 0.00 0.00 0.00 100 1007.6
20260506183551 0 0 0.0 0.0 0.00 0.00 0.00 100 1007.6
20260506182336 0 0 0.0 0.0 0.00 0.00 0.00 100 1007.5
20260506181011 0 0 0.0 0.0 0.00 0.00 0.00 100 1007.6
20260506175731 0 0 0.0 0.0 0.00 0.00 0.00 100 1007.6
20260506174319 0 0 0.0 0.0 0.00 0.00 0.00 100 1007.5
20260506172945 0 0 0.0 0.0 0.00 0.00 0.00 100 1007.6
20260506171628 0 0 0.0 0.0 0.00 0.00 0.00 100 1007.6
20260506170136 0 0 0.0 0.0 0.00 0.00 0.00 100 1007.5
20260506164748 0 0 0.0 0.0 0.00 0.00 0.00 100 1007.6
20260506163525 0 0 0.0 0.0 0.00 0.00 0.00 100 1007.6
20260506162144 0 0 0.0 0.0 0.00 0.00 0.00 100 1007.5
20260506160801 0 0 0.0 0.0 0.00 0.00 0.00 100 1007.7
20260506155545 0 0 0.0 0.0 0.00 0.00 0.00 100 1007.7
20260506154244 68 0 0.0 0.0 0.00 0.00 0.00 6 1007.5
20260506152803 68 330 3.0 3.0 0.00 0.00 0.00 6 1007.5
20260506151436 68 328 6.0 10.0 0.00 0.00 0.00 6 1007.4
20260506145941 68 136 2.0 3.0 0.00 0.00 0.00 6 1007.6
20260506144631 68 136 2.0 3.0 0.00 0.00 0.00 6 1007.6
20260506143249 68 326 1.0 6.0 0.00 0.00 0.00 6 1007.8
20260506142005 68 318 3.0 3.0 0.00 0.00 0.00 6 1007.9
20260506140801 68 290 2.0 6.0 0.00 0.00 0.00 6 1008.1
20260506135359 67 273 1.0 2.0 0.00 0.00 0.00 6 1008.3
20260506134151 69 293 1.0 4.0 0.00 0.00 0.00 6 1008.2
20260506132844 69 332 8.0 10.0 0.00 0.00 0.00 6 1008.2
20260506131438 68 316 1.0 3.0 0.00 0.00 0.00 6 1008.3
20260506130030 0 0 0.0 0.0 0.00 0.00 0.00 100 1008.5
20260506124830 0 0 0.0 0.0 0.00 0.00 0.00 100 1008.5
20260506123344 0 0 0.0 0.0 0.00 0.00 0.00 100 1008.5
20260506122005 0 0 0.0 0.0 0.00 0.00 0.00 100 1008.4
20260506120546 66 185 2.0 8.0 0.00 0.00 0.00 6 1009.2
20260506115330 66 185 2.0 8.0 0.00 0.00 0.00 6 1009.2
20260506114026 66 185 2.0 8.0 0.00 0.00 0.00 6 1009.2
20260506112550 66 185 2.0 8.0 0.00 0.00 0.00 6 1009.2
20260506111336 66 185 2.0 8.0 0.00 0.00 0.00 6 1009.2
20260506110046 66 185 2.0 8.0 0.00 0.00 0.00 6 1009.2
20260506105615 66 185 2.0 8.0 0.00 0.00 0.00 6 1009.2
20260506104339 67 216 1.0 8.0 0.00 0.00 0.00 6 1009.2
20260506102919 68 0 0.0 1.0 0.00 0.00 0.00 6 1009.1
20260506101621 68 0 0.0 1.0 0.00 0.00 0.00 6 1009.1
20260506100326 68 229 2.0 8.0 0.00 0.00 0.00 6 1009.3
20260506095026 67 165 2.0 2.0 0.00 0.00 0.00 6 1009.2
20260506093816 66 244 3.0 6.0 0.00 0.00 0.00 6 1009.2
20260506092340 67 148 1.0 4.0 0.00 0.00 0.00 6 1009.0
20260506091101 67 148 2.0 3.0 0.00 0.00 0.00 7 1009.0
20260506085829 65 153 1.0 6.0 0.00 0.00 0.00 7 1008.9
20260506084351 65 148 5.0 6.0 0.00 0.00 0.00 7 1008.9
20260506082936 0 0 0.0 0.0 0.00 0.00 0.00 100 1008.8
20260506081711 0 0 0.0 0.0 0.00 0.00 0.00 100 1008.8
20260506080246 0 0 0.0 0.0 0.00 0.00 0.00 100 1008.7
20260506072329 0 0 0.0 0.0 0.00 0.00 0.00 100 1008.6
20260506070945 0 0 0.0 0.0 0.00 0.00 0.00 100 1008.7
20260506061836 62 0 0.0 0.0 0.00 0.00 0.00 7 1008.8
20260506060611 62 125 1.0 2.0 0.00 0.00 0.00 7 1008.7
20260506051401 61 172 1.0 1.0 0.00 0.00 0.00 7 1008.1
20260506044805 62 0 0.0 0.0 0.00 0.00 0.00 8 1008.0
20260506043520 62 0 0.0 2.0 0.00 0.00 0.00 8 1007.9
20260506042216 62 129 1.0 2.0 0.00 0.00 0.00 8 1007.9
20260506040903 62 0 0.0 1.0 0.00 0.00 0.00 8 1007.8
20260506035531 62 165 2.0 5.0 0.00 0.00 0.00 8 1007.9
20260506034156 63 0 0.0 1.0 0.00 0.00 0.00 8 1007.9
20260506032944 63 0 0.0 1.0 0.00 0.00 0.00 8 1007.9
20260506030237 63 0 0.0 1.0 0.00 0.00 0.00 8 1007.8
20260506024934 63 0 0.0 0.0 0.00 0.00 0.00 8 1007.9
20260506023516 63 133 2.0 2.0 0.00 0.00 0.00 8 1007.9
20260506022051 63 130 1.0 2.0 0.00 0.00 0.00 8 1008.0
20260506020656 64 0 0.0 1.0 0.00 0.00 0.00 8 1008.0
20260506015246 64 0 0.0 2.0 0.00 0.00 0.00 8 1007.9
20260506014018 64 0 0.0 1.0 0.00 0.00 0.00 8 1008.0
20260506012806 64 126 1.0 1.0 0.00 0.00 0.00 8 1008.1
20260506011512 64 124 1.0 2.0 0.00 0.00 0.00 8 1008.1
20260506010126 64 124 1.0 2.0 0.00 0.00 0.00 8 1008.1
20260506004818 64 152 1.0 2.0 0.00 0.00 0.00 7 1008.3
20260506003559 64 127 1.0 2.0 0.00 0.00 0.00 8 1008.4
20260506002401 64 146 1.0 2.0 0.00 0.00 0.00 8 1008.5
20260506001036 64 163 2.0 2.0 0.00 0.00 0.00 8 1008.5
20260505235541 64 157 2.0 4.0 0.00 0.00 0.00 8 1008.5
20260505234241 64 116 9.0 9.0 0.00 0.00 0.00 8 1008.4
20260505232854 64 143 5.0 9.0 0.00 0.00 0.00 8 1008.4
20260505231611 64 143 5.0 9.0 0.00 0.00 0.00 8 1008.4
20260505230140 64 128 3.0 6.0 0.00 0.00 0.00 8 1008.4
20260505224925 64 133 6.0 13.0 0.00 0.00 0.00 8 1008.3